DW6083 Weather Reports


Display with metric or nautical units.
time (UTC)temp
F
wind
direction
speed
MPH
gust
MPH
rain 1hr
in
rain 24hr
in
rain mn
in
humidity
%
barometer
mb
20260503001555 59 169 0.0 0.0 0.00 0.00 0.00 1 1012.3
20260503000051 60 169 0.0 0.0 0.00 0.00 0.00 6 1012.2
20260502234554 61 169 0.0 0.0 0.00 0.00 0.00 17 1012.0
20260502233040 62 169 0.0 0.0 0.00 0.00 0.00 21 1011.8
20260502231535 62 169 0.0 0.0 0.00 0.00 0.00 39 1011.6
20260502230030 62 129 0.0 0.0 0.00 0.00 0.00 43 1011.5
20260502224524 63 129 0.0 0.0 0.00 0.00 0.00 46 1011.4
20260502223034 64 129 0.0 0.0 0.00 0.00 0.00 47 1011.5
20260502221516 64 129 0.0 0.0 0.00 0.00 0.00 52 1011.2
20260502220012 65 54 0.0 0.0 0.00 0.00 0.00 54 1011.2
20260502214506 65 115 0.0 0.0 0.00 0.00 0.00 53 1011.2
20260502213003 65 114 0.0 0.0 0.00 0.00 0.00 53 1011.2
20260502211559 64 355 0.0 0.0 0.00 0.00 0.00 50 1011.1
20260502210052 64 125 0.0 0.0 0.00 0.00 0.00 53 1011.1
20260502204548 64 131 0.0 0.0 0.00 0.00 0.00 53 1011.1
20260502203106 65 44 0.0 0.0 0.00 0.00 0.00 47 1011.1
20260502201543 64 150 0.0 0.0 0.00 0.00 0.00 51 1011.3
20260502200041 64 111 0.0 0.0 0.00 0.00 0.00 47 1011.3
20260502194530 64 131 0.0 0.0 0.00 0.00 0.00 35 1011.6
20260502193025 63 24 0.0 0.0 0.00 0.00 0.00 13 1011.8
20260502191521 62 24 0.0 0.0 0.00 0.00 0.00 1 1012.0
20260502190020 60 23 0.0 0.0 0.00 0.00 0.00 1 1012.2
20260502184512 59 176 0.0 0.0 0.00 0.00 0.00 1 1012.2
20260502183008 58 50 0.0 0.0 0.00 0.00 0.00 1 1012.4
20260502181508 57 47 0.0 0.0 0.00 0.00 0.00 1 1012.5
20260502163106 56 40 0.0 0.0 0.00 0.00 0.00 1 1012.5
20260502151539 59 338 0.0 0.0 0.00 0.00 0.00 1 1012.2
20260502130106 57 146 0.0 0.0 0.00 0.00 0.00 1 1011.5
20260502123110 56 104 0.0 0.0 0.00 0.00 0.00 1 1011.8
20260502121543 56 104 0.0 0.0 0.00 0.00 0.00 1 1012.6
20260502114534 56 0.0 0.0 0.00 0.00 0.00 1011.9
20260502113039 0 0.0 0.0 0.00 0.00 0.00 1011.2
20260502111532 0 0.0 0.0 0.00 0.00 0.00 1010.7
20260502110031 0 0.0 0.0 0.00 0.00 0.00 1010.7
20260502104533 0 0.0 0.0 0.00 0.00 0.00 1010.6
20260502103030 0 0.0 0.0 0.00 0.00 0.00 1010.6
20260502101526 0 0.0 0.0 0.00 0.00 0.00 1010.5
20260502091508 56 126 0.0 0.0 0.00 0.00 0.00 1 1011.4
20260502071536 56 126 0.0 0.0 0.00 0.00 0.00 1 1011.5
20260502070033 56 126 0.0 0.0 0.00 0.00 0.00 1 1011.4
20260502064529 56 126 0.0 0.0 0.00 0.00 0.00 1 1011.5
20260502063022 56 126 0.0 0.0 0.00 0.00 0.00 1 1011.3
20260502061520 56 126 0.0 0.0 0.00 0.00 0.00 1 1011.3
20260502060014 57 126 0.0 0.0 0.00 0.00 0.00 1 1011.4
20260502054509 57 126 0.0 0.0 0.00 0.00 0.00 1 1011.6
20260502053005 57 126 0.0 0.0 0.00 0.00 0.00 1 1011.8
20260502051609 57 126 0.0 0.0 0.00 0.00 0.00 1 1012.0
20260502050056 57 126 0.0 0.0 0.00 0.00 0.00 1 1012.1
20260502044559 57 126 0.0 0.0 0.00 0.00 0.00 1 1012.1
20260502043048 57 126 0.0 0.0 0.00 0.00 0.00 1 1012.0
20260502041544 57 126 0.0 0.0 0.00 0.00 0.00 1 1012.1
20260502040038 57 126 0.0 0.0 0.00 0.00 0.00 1 1012.5
20260502034534 58 126 0.0 0.0 0.00 0.00 0.00 1 1012.6
20260502033029 58 126 0.0 0.0 0.00 0.00 0.00 1 1012.6
20260502031525 58 126 0.0 0.0 0.00 0.00 0.00 1 1012.5
20260502030023 58 126 0.0 0.0 0.00 0.00 0.00 1 1012.4
20260502024523 59 126 0.0 0.0 0.00 0.00 0.00 1 1012.3
20260502023016 59 126 0.0 0.0 0.00 0.00 0.00 1 1012.3
20260502021507 60 126 0.0 0.0 0.00 0.00 0.00 1 1012.4
20260502020004 60 126 0.0 0.0 0.00 0.00 0.00 1 1012.3
20260502014506 60 126 0.0 0.0 0.00 0.00 0.00 1 1012.1
20260502013006 61 126 0.0 0.0 0.00 0.00 0.00 1 1012.3
20260502011601 61 126 0.0 0.0 0.00 0.00 0.00 1 1012.2
20260502010056 62 126 0.0 0.0 0.00 0.00 0.00 2 1011.9
20260502004551 63 126 0.0 0.0 0.00 0.00 0.00 10 1011.6
20260502003050 64 126 0.0 0.0 0.00 0.00 0.00 20 1011.4